Regional Weather Roundup
Issued by NWS

Home | Current Version | Previous Version | Graphics & Text | Print | Product List | Glossary On
Versions: 1 2 3 4 5 6 7 8 9 10 11 12 13 14 15 16 17 18 19 20 21 22 23 24 25 26 27 28 29 30 31 32 33 34 35 36 37 38 39 40 41 42 43 44 45 46 47 48 49 50
000
ASUS43 KLMK 051910
RWRKY
KENTUCKY REGIONAL WEATHER ROUNDUP
NATIONAL WEATHER SERVICE LOUISVILLE KY
300 PM EDT TUE MAY 05 2015

NOTE "FAIR" INDICATES FEW OR NO CLOUDS BELOW 12,000 FEET
WITH NO SIGNIFICANT WEATHER AND/OR OBSTRUCTIONS TO VISIBILITY.

KYZ001>023-026-027-061>063-070>075-052000-
WESTERN AND SOUTH CENTRAL KENTUCKY

CITY           SKY/WX    TMP DP  RH WIND       PRES   REMARKS
PADUCAH        MOSUNNY   85  55  35 SW8       30.18F
HENDERSON      PTSUNNY   82  54  36 S9        30.19F
OWENSBORO      MOSUNNY   85  58  39 W8        30.22F
HOPKINSVILLE   SUNNY     83  55  38 SW7       30.22F
BOWLING GREEN  MOSUNNY   83  54  36 W8        30.24F
GLASGOW        PTSUNNY   82  53  36 CALM      30.25F
$$

KYZ024-025-028>034-038-045-046-053-052000-
NORTH CENTRAL KENTUCKY

CITY           SKY/WX    TMP DP  RH WIND       PRES   REMARKS
LOUISVILLE/SDF MOSUNNY   85  50  29 S12       30.22F
LOUISVILLE/LOU MOSUNNY   83  52  34 S7        30.23F
FORT KNOX      SUNNY     83  53  35 SW7       30.23F
$$

KYZ035>037-039>044-047>052-055>060-089>105-052000-
NORTHEAST KENTUCKY

CITY           SKY/WX    TMP DP  RH WIND       PRES   REMARKS
LEXINGTON      MOSUNNY   81  55  40 W7        30.27F
COVINGTON      MOSUNNY   81  53  37 SW8       30.24F
FRANKFORT      PTSUNNY   79  53  40 VRB6      30.24F
$$

KYZ054-064>069-076>088-106>120-052000-
SOUTHEAST KENTUCKY

CITY           SKY/WX    TMP DP  RH WIND       PRES   REMARKS
JACKSON        MOSUNNY   80  51  36 CALM      30.28F
LONDON         SUNNY     82  47  29 E7        30.27F
SOMERSET       SUNNY     79  52  38 W8        30.28F
MIDDLESBORO    MOSUNNY   81  52  36 CALM      30.27F
MONTICELLO     CLEAR     83  51  32 CALM      30.29F
$$




USA.gov is the U.S. government's official web portal to all federal, state and local government web resources and services.